Location: Unspecified
(44.0704°N, 88.6889°W)
Time: 03:12:38
(UTC+02:00)

Transit 2A - Pass Details

Date: 24 June 2019
Orbit: 596 x 962 km, 66.7° (Epoch: 16 August)

Event Time Altitude Azimuth Distance (km) Brightness Sun altitude
Rises 15:00:54 0° 333° (NNW) 3,489 9.2 27.2°
Reaches altitude 10° 15:03:58 10° 346° (NNW) 2,486 8.7 27.8°
Maximum altitude 15:08:37 25° 41° (NE) 1,577 8.6 28.6°
Drops below altitude 10° 15:12:53 10° 96° (E) 2,271 10.0 29.4°
Sets 15:15:33 0° 110° (ESE) 3,126 10.1 29.8°
